Tracking 28126 objects as of 1-Oct-2023
HD Live streaming from Space Station
objects crossing your sky now

SL-8 R/B

Track SL-8 R/B now!
10-day predictions


NORAD ID: 4391
Int'l Code: 1970-036J
Perigee: 1,475.0 km
Apogee: 1,595.3 km
Inclination: 74.0 °
Period: 116.6 minutes
Semi major axis: 7906 km
RCS: 6.0858 m2 (large)
Launch date: April 25, 1970
Source: Commonwealth of Independent States (former USSR) (CIS)
Launch site: PLESETSK MISSILE AND SPACE COMPLEX (PKMTR)

Note: This is a ROCKET BODY
Your satellite tracking list
Your tracking list is empty




NASA's NSSDC Master Catalog

Two Line Element Set (TLE):
1  4391U 70036J   23273.79577398 -.00000078  00000-0 -49358-3 0  9994
2  4391  74.0250 103.4282 0076062 196.9562 175.1743 12.34971165409185
Source of the keplerian elements: AFSPC